Regional Weather Roundup
Issued by NWS

Home | Current Version | Previous Version | Text Only | Print | Product List | Glossary On
Versions: 1 2 3 4 5 6 7 8 9 10 11 12 13 14 15 16 17 18 19 20 21 22 23 24 25 26 27 28 29 30 31 32 33 34 35 36 37 38 39 40 41 42 43 44 45 46 47 48 49 50
000
ASUS46 KSTO 280415
RWRCA

NORTHERN AND CENTRAL CA REGIONAL WEATHER ROUNDUP
NATIONAL WEATHER SERVICE SACRAMENTO CA
900 PM PDT WED JUL 27 2016

NOTE: FAIR INDICATES FEW OR NO CLOUDS BELOW 12,000 FEET WITH NO
SIGNIFICANT WEATHER AND/OR OBSTRUCTIONS TO VISIBILITY.

CAZ001-003-280500-
NORTHWEST AREA

CITY           SKY/WX    TMP DP  RH WIND       PRES   REMARKS
CRESCENT CITY  CLEAR     56  53  90 S10       29.92R
UKIAH          CLEAR     86  45  23 NW5       29.85R
$$

CAZ006-505>513-280500-
BAY AREA

CITY           SKY/WX    TMP DP  RH WIND       PRES   REMARKS
SANTA ROSA     CLEAR     58  51  78 S8        29.87R
SAN RAFAEL     N/A       76  MM  MM MISG
NAPA           CLEAR     63  57  81 S10       29.87R
CONCORD        CLEAR     82  48  30 W10       29.84R
OAKLAND CITY   N/A       61  MM  MM MISG
OAKLAND        PTCLDY    60  55  83 NW13      29.90R
SAN FRAN CITY  N/A       54  MM  90 MISG
SAN FRAN ARPT  PTCLDY    56  51  84 NW18      29.89R
LIVERMORE      CLEAR     83  45  26 W10       29.85R
HAYWARD        CLEAR     63  52  67 W7        29.89R
REDWOOD CITY   N/A       68  MM  66 MISG
MOFFETT ARPT   CLEAR     65  56  72 NW7       29.90R
SAN JOSE ARPT  MOCLDY    70  56  61 W8        29.89R
$$
CAZ034-037-514>518-280500-
CENTRAL COAST

CITY           SKY/WX    TMP DP  RH WIND       PRES   REMARKS
WATSONVILLE      N/A     54  52  93 S3        29.93S
SALINAS        CLOUDY    57  53  86 W9        29.92S
MONTEREY       FOG       55  54  96 VRB5      29.94S VSB 3/4
SAN LUIS OBISP CLEAR     61  54  77 NW7       29.91S
SANTA MARIA    PTCLDY    56  55  97 NW5       29.93S
$$
CAZ015-016-280500-
NORTHERN SACRAMENTO VALLEY

CITY           SKY/WX    TMP DP  RH WIND       PRES   REMARKS
REDDING        CLEAR     95  47  19 CALM      29.78S HX  91
RED BLUFF      CLEAR     93  54  26 SE5       29.78S HX  91
OROVILLE       CLEAR     92  52  25 SE6       29.79R
$$
CAZ016>018-280500-
SOUTHERN SACRAMENTO VALLEY

CITY           SKY/WX    TMP DP  RH WIND       PRES   REMARKS
BEALE AFB      CLEAR     89  54  30 SE7       29.77R
LINCOLN        FAIR      88  45  22 S8        29.78S
MARYSVILLE     CLEAR     90  55  30 S7        29.77R
SAC INTL ARPT  PTCLDY    86  56  35 S9        29.78R
MATHER AIRPORT PTCLDY    86  54  32 SW8       29.80R
DOWNTOWN SAC   N/A       86  MM  MM MISG
SAC EXEC ARPT  CLEAR     83  54  36 S7        29.79R
VACAVILLE      CLEAR     94  42  16 CALM      29.80R HX  90
TRAVIS AFB     CLEAR     74  54  49 SW22      29.78R
$$
CAZ019>021-280500-
SAN JOAQUIN VALLEY

CITY           SKY/WX    TMP DP  RH WIND       PRES   REMARKS
STOCKTON       CLEAR     88  54  31 NW12      29.82R
MODESTO        CLEAR     95  42  16 NW8       29.80R HX  91
MERCED         CLEAR     88  53  30 NW6       29.80R
LEMOORE        PTCLDY    93  51  23 NW10      29.80R HX  90
FRESNO         PTCLDY    95  52  23 NW14      29.80R HX  92
HANFORD          N/A     94  57  28 NW10      29.80R HX  92
PORTERVILLE    CLEAR     93  62  35 W8        29.82R HX  93
BAKERSFIELD    CLEAR     95  39  14 NW5       29.81R HX  91
$$
CAZ011-012-071-280500-
NORTHERN MOUNTAINS

CITY           SKY/WX    TMP DP  RH WIND       PRES   REMARKS
YREKA          CLEAR     84  50  30 N13       30.00R
MOUNT SHASTA   CLEAR     78  52  40 VRB3      30.05R
ALTURAS        CLEAR     79  23  12 SW6       30.10R
$$
CAZ011-012-071-280500-
SIERRA NEVADA MTNS

CITY           SKY/WX    TMP DP  RH WIND       PRES   REMARKS
BLUE CANYON    CLEAR     76  39  26 S3        30.23R
TRUCKEE        CLEAR     68  37  32 SE3       30.27R
TAHOE VLY ARPT CLEAR     69  40  34 CALM      30.29R
MAMMOTH LAKES    N/A     74  42  31 W7        30.33F
$$




USA.gov is the U.S. government's official web portal to all federal, state and local government web resources and services.